Location: Newark
(41.6478°N, 9.0078°E)
Time: 00:33:19
(UTC+00:00)

UWE-3 - Pass Details

Date: 01 February 2020
Orbit: 585 x 682 km, 97.6° (Epoch: 24 February)

Event Time Altitude Azimuth Distance (km) Brightness Sun altitude
Rises 06:01:08 0° 357° (N) 2,908 ? -7.1°
Reaches altitude 10° 06:03:44 10° 341° (NNW) 2,015 ? -6.6°
Maximum altitude 06:07:00 21° 293° (WNW) 1,439 ? -6.0°
Drops below altitude 10° 06:10:20 10° 245° (WSW) 2,049 ? -5.4°
Sets 06:13:00 0° 229° (SW) 2,973 ? -5.0°
